Location: ???? ?????
(30.0052°N, 31.2891°E)
Time: 19:29:07
(UTC+00:00)

Cosmos 1331 Rocket - Pass Details

Date: 05 October 2022
Orbit: 748 x 778 km, 74.0° (Epoch: 06 December)

Event Time Altitude Azimuth Distance (km) Brightness Sun altitude
Exits shadow 00:39:53 15° 77° (ENE) 1,924 6.6 -41.3°
Drops below altitude 10° 00:41:42 10° 58° (ENE) 2,266 7.1 -41.0°
Sets 00:44:50 0° 38° (NE) 3,196 7.9 -40.3°
